When you browse on this site, cookies collect data to enhance your experience and personalize the content and advertising you see.
Visit our Privacy Policy to learn more. By continuing to use the site, you agree to this use of cookies and data.
  • En España
  • Lista de países
  • Para 7 días
  • Temperatura del agua
  • Mapa Satelital
  • El tiempo en el mapa
  • Informadores
  • user-avatar
    Iniciar sesión

    Tiempo cada hora Montana

    Hoy, 17 Noviembre, Sábado

    Tiempo Temperatura Precipitaciones Viento Presión Humedad
    00:00 +2°C° 0 mm 2 mps 743 mmHg 73%
    01:00 +1°C° 0 mm 2 mps 743 mmHg 74%
    02:00 0°C° 0 mm 3 mps 743 mmHg 73%
    03:00 0°C° 0 mm 3 mps 743 mmHg 73%
    04:00 -1°C° 0 mm 3 mps 743 mmHg 74%
    05:00 -1°C° 0 mm 3 mps 743 mmHg 74%
    06:00 -1°C° 0 mm 3 mps 743 mmHg 75%
    07:00 -1°C° 0 mm 3 mps 743 mmHg 75%
    08:00 -1°C° 0 mm 3 mps 743 mmHg 75%
    09:00 0°C° 0 mm 3 mps 743 mmHg 70%
    10:00 +1°C° 0 mm 3 mps 743 mmHg 66%
    11:00 +2°C° 0 mm 3 mps 743 mmHg 61%
    12:00 +2°C° 0 mm 3 mps 743 mmHg 60%
    13:00 +2°C° 0 mm 3 mps 743 mmHg 60%
    14:00 +3°C° 0 mm 3 mps 742 mmHg 59%
    15:00 +2°C° 0 mm 3 mps 742 mmHg 63%
    16:00 +1°C° 0 mm 3 mps 742 mmHg 68%
    17:00 +1°C° 0 mm 3 mps 742 mmHg 72%
    18:00 +1°C° 0 mm 3 mps 742 mmHg 75%
    19:00 0°C° 0 mm 3 mps 743 mmHg 78%
    20:00 0°C° 0 mm 3 mps 743 mmHg 81%
    21:00 0°C° 0 mm 3 mps 743 mmHg 82%
    22:00 0°C° 0 mm 3 mps 743 mmHg 83%
    23:00 0°C° 0 mm 3 mps 743 mmHg 84%

    Mañana, 18 Noviembre, Domingo

    Tiempo Temperatura Precipitaciones Viento Presión Humedad
    00:00 +1°C° 0 mm 2 mps 743 mmHg 84%
    01:00 +1°C° 0 mm 2 mps 742 mmHg 84%
    02:00 +1°C° 0 mm 2 mps 742 mmHg 84%
    03:00 +1°C° 0 mm 2 mps 742 mmHg 85%
    04:00 +1°C° 0 mm 2 mps 741 mmHg 85%
    05:00 +1°C° 0 mm 2 mps 741 mmHg 85%
    06:00 +1°C° 0 mm 2 mps 741 mmHg 85%
    07:00 +1°C° 0 mm 2 mps 741 mmHg 84%
    08:00 +1°C° 0 mm 2 mps 740 mmHg 84%
    09:00 +2°C° 0 mm 2 mps 740 mmHg 81%
    10:00 +2°C° 0 mm 3 mps 740 mmHg 78%
    11:00 +2°C° 0 mm 3 mps 739 mmHg 74%
    12:00 +3°C° 0 mm 3 mps 739 mmHg 74%
    13:00 +3°C° 0 mm 3 mps 738 mmHg 73%
    14:00 +3°C° 0 mm 3 mps 737 mmHg 72%
    15:00 +4°C° 0.3 mm 2 mps 737 mmHg 76%
    16:00 +3°C° 0.3 mm 2 mps 736 mmHg 80%
    17:00 +3°C° 0.3 mm 2 mps 736 mmHg 84%
    18:00 +2°C° 1.1 mm 2 mps 735 mmHg 87%
    19:00 +2°C° 1.1 mm 2 mps 735 mmHg 90%
    20:00 +3°C° 1.1 mm 1 mps 734 mmHg 92%
    21:00 +3°C° 1.2 mm 1 mps 734 mmHg 94%
    22:00 +2°C° 1.2 mm 1 mps 733 mmHg 95%
    23:00 +2°C° 1.2 mm 1 mps 733 mmHg 96%

    Pasado mañana, 19 Noviembre, Lunes

    Tiempo Temperatura Precipitaciones Viento Presión Humedad
    00:00 +2°C° 1.3 mm 1 mps 733 mmHg 97%
    01:00 +2°C° 1.3 mm 1 mps 732 mmHg 97%
    02:00 +2°C° 1.3 mm 1 mps 732 mmHg 97%
    03:00 +2°C° 0.5 mm 1 mps 731 mmHg 97%
    04:00 +2°C° 0.5 mm 1 mps 731 mmHg 97%
    05:00 +2°C° 0.5 mm 1 mps 731 mmHg 97%
    06:00 +2°C° 0.1 mm 1 mps 731 mmHg 97%
    07:00 +2°C° 0.1 mm 1 mps 732 mmHg 97%
    08:00 +2°C° 0.1 mm 1 mps 732 mmHg 97%
    09:00 +3°C° 0 mm 1 mps 732 mmHg 97%
    10:00 +4°C° 0 mm 1 mps 732 mmHg 97%
    11:00 +4°C° 0 mm 1 mps 732 mmHg 97%
    12:00 +5°C° 0 mm 1 mps 732 mmHg 96%
    13:00 +5°C° 0 mm 1 mps 733 mmHg 96%
    14:00 +5°C° 0 mm 1 mps 733 mmHg 96%
    15:00 +5°C° 0 mm 1 mps 733 mmHg 96%
    16:00 +4°C° 0 mm 1 mps 733 mmHg 97%
    17:00 +4°C° 0 mm 1 mps 733 mmHg 97%
    18:00 +4°C° 0 mm 1 mps 734 mmHg 97%
    19:00 +3°C° 0 mm 1 mps 734 mmHg 97%
    20:00 +3°C° 0 mm 1 mps 734 mmHg 97%
    21:00 +3°C° 0 mm 1 mps 735 mmHg 97%
    22:00 +3°C° 0 mm 1 mps 735 mmHg 97%
    23:00 +3°C° 0 mm 1 mps 735 mmHg 97%

    20 Noviembre, Martes

    Tiempo Temperatura Precipitaciones Viento Presión Humedad
    00:00 +3°C° 0 mm 1 mps 735 mmHg 96%
    01:00 +3°C° 0 mm 1 mps 735 mmHg 96%
    02:00 +3°C° 0 mm 2 mps 735 mmHg 96%
    03:00 +3°C° 0.5 mm 2 mps 735 mmHg 96%
    04:00 +3°C° 0.5 mm 2 mps 735 mmHg 97%
    05:00 +3°C° 0.5 mm 2 mps 735 mmHg 97%
    06:00 +3°C° 0.3 mm 2 mps 735 mmHg 97%
    07:00 +2°C° 0.3 mm 3 mps 734 mmHg 96%
    08:00 +2°C° 0.3 mm 3 mps 734 mmHg 96%
    09:00 +3°C° 0.1 mm 3 mps 734 mmHg 95%
    10:00 +4°C° 0.1 mm 3 mps 734 mmHg 93%
    11:00 +5°C° 0.1 mm 3 mps 734 mmHg 92%
    12:00 +5°C° 0.3 mm 3 mps 734 mmHg 92%
    13:00 +5°C° 0.3 mm 3 mps 733 mmHg 91%
    14:00 +7°C° 0.3 mm 3 mps 733 mmHg 91%
    15:00 +7°C° 0.2 mm 3 mps 732 mmHg 92%
    16:00 +5°C° 0.2 mm 3 mps 732 mmHg 92%
    17:00 +5°C° 0.2 mm 3 mps 732 mmHg 93%
    18:00 +5°C° 0.1 mm 3 mps 731 mmHg 94%
    19:00 +5°C° 0.1 mm 3 mps 731 mmHg 94%
    20:00 +5°C° 0.1 mm 3 mps 731 mmHg 95%
    21:00 +6°C° 0.5 mm 2 mps 731 mmHg 95%
    22:00 +7°C° 0.5 mm 2 mps 731 mmHg 95%
    23:00 +7°C° 0.5 mm 2 mps 730 mmHg 96%

    21 Noviembre, Miércoles

    Tiempo Temperatura Precipitaciones Viento Presión Humedad
    00:00 +7°C° 0.1 mm 2 mps 730 mmHg 96%
    01:00 +8°C° 0.1 mm 1 mps 730 mmHg 96%
    02:00 +8°C° 0.1 mm 1 mps 730 mmHg 97%
    03:00 +8°C° 0 mm 1 mps 730 mmHg 97%
    04:00 +7°C° 0 mm 1 mps 730 mmHg 97%
    05:00 +7°C° 0 mm 1 mps 730 mmHg 97%
    06:00 +7°C° 0 mm 1 mps 731 mmHg 96%
    07:00 +8°C° 0 mm 1 mps 731 mmHg 96%
    08:00 +8°C° 0 mm 1 mps 731 mmHg 96%
    09:00 +9°C° 0 mm 1 mps 732 mmHg 92%
    10:00 +11°C° 0 mm 1 mps 732 mmHg 88%
    11:00 +12°C° 0 mm 1 mps 732 mmHg 83%
    12:00 +13°C° 0 mm 1 mps 732 mmHg 79%
    13:00 +14°C° 0 mm 1 mps 732 mmHg 76%
    14:00 +15°C° 0 mm 1 mps 732 mmHg 72%
    15:00 +13°C° 0 mm 1 mps 732 mmHg 76%
    16:00 +11°C° 0 mm 0 mps 732 mmHg 81%
    17:00 +10°C° 0 mm 0 mps 732 mmHg 86%
    18:00 +10°C° 0 mm 0 mps 733 mmHg 86%
    19:00 +9°C° 0 mm 0 mps 733 mmHg 87%
    20:00 +9°C° 0 mm 0 mps 734 mmHg 87%
    21:00 +9°C° 0 mm 0 mps 734 mmHg 87%
    22:00 +9°C° 0 mm 0 mps 734 mmHg 88%
    23:00 +9°C° 0 mm 0 mps 735 mmHg 88%

    22 Noviembre, Jueves

    Tiempo Temperatura Precipitaciones Viento Presión Humedad
    00:00 +9°C° 0 mm 0 mps 735 mmHg 88%
    01:00 +9°C° 0 mm 0 mps 735 mmHg 89%
    02:00 +8°C° 0 mm 0 mps 735 mmHg 89%
    03:00 +8°C° 0 mm 0 mps 736 mmHg 90%
    04:00 +9°C° 0 mm 1 mps 736 mmHg 91%
    05:00 +9°C° 0 mm 1 mps 736 mmHg 92%
    06:00 +9°C° 0 mm 1 mps 736 mmHg 93%
    07:00 +9°C° 0 mm 1 mps 737 mmHg 94%
    08:00 +9°C° 0 mm 1 mps 737 mmHg 94%
    09:00 +9°C° 0 mm 1 mps 737 mmHg 91%
    10:00 +10°C° 0 mm 1 mps 738 mmHg 88%
    11:00 +11°C° 0 mm 1 mps 738 mmHg 85%
    12:00 +10°C° 0 mm 2 mps 738 mmHg 85%
    13:00 +10°C° 0 mm 2 mps 738 mmHg 84%
    14:00 +10°C° 0 mm 2 mps 738 mmHg 83%
    15:00 +9°C° 0 mm 2 mps 738 mmHg 85%
    16:00 +9°C° 0 mm 2 mps 738 mmHg 87%
    17:00 +8°C° 0 mm 2 mps 738 mmHg 89%
    18:00 +8°C° 0 mm 2 mps 739 mmHg 89%
    19:00 +7°C° 0 mm 2 mps 739 mmHg 89%
    20:00 +7°C° 0 mm 2 mps 739 mmHg 90%
    21:00 +7°C° 0 mm 2 mps 740 mmHg 90%
    22:00 +7°C° 0 mm 2 mps 740 mmHg 90%
    23:00 +6°C° 0 mm 2 mps 740 mmHg 90%
    Mostrar más